This is the latest recevied weather packets stored in our database for station/object KC9DRE. If no packets are shown the sender has not sent any weather packets the latest 10 day(s).
| Time | Temp. | Humidity | Pressure | Rain* | Wind** | Luminosity | Snow |
|---|---|---|---|---|---|---|---|
| 1788135894 | 24.44° C | 84% | 1018 hPa | 0 mm | - | 1 W/m² | - |
| 1788135589 | 25° C | 84% | 1017.9 hPa | 0 mm | - | 2 W/m² | - |
| 1788135284 | 25.56° C | 83% | 1017.8 hPa | 0 mm | - | 4 W/m² | - |
| 1788134982 | 25.56° C | 83% | 1017.8 hPa | 0 mm | - | 6 W/m² | - |
| 1788134677 | 25.56° C | 82% | 1017.9 hPa | 0 mm | - | 10 W/m² | - |
| 1788134375 | 26.11° C | 81% | 1018 hPa | 0 mm | - | 14 W/m² | - |
| 1788134070 | 26.67° C | 79% | 1017.9 hPa | 0 mm | - | 18 W/m² | - |
| 1788133766 | 26.67° C | 78% | 1017.8 hPa | 0 mm | - | 21 W/m² | - |
| 1788133461 | 27.22° C | 77% | 1018 hPa | 0 mm | - | 25 W/m² | - |
| 1788133157 | 27.22° C | 76% | 1018.1 hPa | 0 mm | - | 30 W/m² | - |
| 1788132852 | 27.78° C | 75% | 1018 hPa | 0 mm | - | 34 W/m² | - |
| 1788132547 | 27.78° C | 73% | 1018.2 hPa | 0 mm | - | 36 W/m² | - |
| 1788132243 | 28.33° C | 72% | 1018.1 hPa | 0 mm | - | 40 W/m² | - |
| 1788131940 | 28.89° C | 69% | 1018.1 hPa | 0 mm | - | 43 W/m² | - |
| 1788131634 | 28.89° C | 69% | 1018.2 hPa | 0 mm | - | 46 W/m² | - |
| 1788131334 | 29.44° C | 66% | 1018.1 hPa | 0 mm | - | 48 W/m² | - |
| 1788131029 | 30° C | 64% | 1018 hPa | 0 mm | - | 50 W/m² | - |
| 1788130729 | 30.56° C | 63% | 1018.3 hPa | 0 mm | - | 52 W/m² | - |
| 1788130424 | 31.67° C | 60% | 1018 hPa | 0 mm | - | 55 W/m² | - |
| 1788130119 | 32.78° C | 57% | 1018 hPa | 0 mm | - | 55 W/m² | - |
| 1788129812 | 32.78° C | 52% | 1018 hPa | 0 mm | - | 115 W/m² | - |
| 1788129509 | 33.33° C | 52% | 1018.1 hPa | 0 mm | - | 139 W/m² | - |
| 1788129206 | 33.33° C | 50% | 1017.9 hPa | 0 mm | - | 152 W/m² | - |
| 1788128905 | 33.89° C | 50% | 1018 hPa | 0 mm | - | 165 W/m² | - |
| 1788128600 | 33.89° C | 49% | 1018 hPa | 0 mm | - | 178 W/m² | - |
* Rain latest hour (hover to see other rain measurements)
** Current wind speed in m/s (hover to see current wind gust speed)